Theta_e
308 309 310 312 313 315 313 313 314 315 317 316 315 314 314 313 310 309 308 306 304 305 305 302 301 300 300 302 303 301 302 301 299 297 296 297 295 295 300 297 297 297 295 295 295 292 290 288 290 294 295 296 296 295 296 296 296 297 296 297 297 296 296
308 310 314 317 314 314 313 313 314 315 315 315 314 313 313 312 313 308 307 305 303 303 306 302 301 300 299 298 298 299 299 299 302 301 297 296 296 294 294 294 294 292 293 294 295 294 292 288 287 290 291 294 293 294 295 296 296 297 296 296 298 297 299
313 312 310 310 311 311 313 313 313 314 314 313 313 313 312 311 309 308 306 305 304 305 305 301 300 300 299 298 299 299 299 298 298 300 299 296 297 296 295 294 292 292 292 292 292 292 292 291 288 289 290 290 288 291 294 294 295 295 295 296 295 294 294
310 309 308 310 312 310 311 311 312 314 314 312 312 312 310 310 310 311 306 304 304 307 303 300 299 299 300 299 298 298 298 298 297 296 298 298 297 296 294 294 292 292 292 292 291 291 291 289 288 288 289 290 290 288 291 294 296 294 294 294 293 293 293
311 310 308 309 311 311 310 311 312 313 312 312 311 310 309 308 307 304 306 303 303 299 299 300 299 299 300 300 298 298 297 297 298 298 295 295 295 295 294 293 293 294 294 294 294 293 292 291 290 288 288 289 289 289 292 293 293 293 293 293 293 293 293
311 311 309 310 311 310 311 313 313 312 311 310 310 310 309 307 306 303 302 301 302 302 301 300 299 298 298 299 300 298 297 296 295 295 294 295 295 294 292 293 293 293 293 294 294 293 293 293 290 286 288 289 286 287 290 290 290 292 292 292 292 293 293
312 312 311 311 312 312 314 314 313 312 311 310 310 309 309 307 305 304 302 301 301 302 303 301 301 300 299 298 298 298 298 296 296 295 294 295 295 295 295 292 292 293 293 294 292 292 292 291 288 287 287 287 287 287 288 288 289 288 289 292 292 293 292
313 314 312 314 313 313 312 313 313 312 311 310 309 309 308 305 304 303 302 300 300 299 299 299 301 299 299 298 300 299 299 297 297 297 294 294 295 295 294 293 295 292 292 292 291 292 293 291 289 288 287 284 283 285 286 286 287 286 287 290 291 292 292
318 315 316 317 314 315 315 315 314 313 312 311 311 309 307 304 303 302 302 300 299 299 299 298 298 299 299 297 295 296 296 302 296 295 294 293 294 294 293 293 292 291 291 291 292 292 292 291 289 289 288 285 282 280 283 283 283 284 288 287 290 291 291
316 314 314 313 314 316 316 315 313 312 311 310 310 308 305 303 301 301 300 299 298 298 298 298 298 297 297 297 296 295 294 294 297 295 294 293 293 294 294 294 292 291 290 291 291 293 292 290 289 288 288 286 286 281 280 280 281 281 284 288 286 289 291
315 315 315 314 316 318 316 315 313 312 310 311 311 310 305 304 304 305 299 299 299 299 298 297 297 296 296 296 295 295 295 293 293 294 296 293 293 294 296 294 292 290 290 289 290 291 291 290 288 288 287 287 286 283 281 280 280 283 284 286 287 287 290
315 316 315 316 317 317 316 315 313 312 311 311 311 307 305 302 301 300 298 297 297 298 298 298 297 295 295 295 297 294 294 293 292 292 294 295 294 294 292 292 291 290 289 289 289 289 290 290 288 288 287 287 287 284 283 282 279 283 286 284 287 289 289
318 316 316 317 316 317 317 315 313 311 311 312 307 306 303 301 300 299 298 297 297 296 296 297 297 296 294 294 294 294 293 293 293 292 292 293 294 293 291 291 291 289 289 288 288 289 288 289 289 288 287 286 285 285 285 282 281 281 285 285 287 288 290
317 318 317 316 317 317 315 314 312 312 312 308 307 304 302 300 299 299 298 299 297 296 295 295 296 295 295 295 294 294 293 293 292 292 294 292 293 293 293 291 290 290 289 288 288 289 289 288 288 289 289 286 284 284 284 282 281 282 284 286 287 287 289
318 318 318 316 317 316 314 313 312 310 307 306 304 302 300 300 299 298 297 296 296 296 296 295 295 295 295 294 294 297 295 293 291 291 291 291 291 294 291 290 290 290 289 289 289 288 288 288 288 287 286 286 283 283 284 283 282 282 281 284 285 288 288
319 317 318 317 317 315 313 312 311 308 307 304 303 301 300 299 299 298 297 296 295 295 295 295 294 294 293 293 292 292 294 292 292 291 290 291 291 291 290 291 290 290 291 288 289 288 289 288 288 287 285 285 283 283 283 284 282 281 281 282 285 285 286
319 318 318 317 315 313 312 311 311 308 306 304 303 301 299 299 298 297 297 296 295 295 296 295 294 294 294 293 292 292 291 292 292 291 291 291 290 290 289 289 289 290 291 288 288 288 287 287 286 286 283 283 283 282 283 284 283 282 282 282 284 285 287
319 319 318 315 314 313 311 310 310 307 305 303 301 300 300 299 297 297 297 296 294 294 293 293 292 292 292 293 293 292 292 291 292 291 291 292 298 290 292 289 290 290 290 288 289 287 287 286 286 285 282 282 282 283 284 283 283 283 282 282 283 285 287
319 320 317 315 313 312 311 309 308 307 305 302 301 300 299 298 298 296 295 294 293 292 291 290 290 290 291 291 291 292 292 292 293 291 291 291 291 292 289 290 290 290 289 288 288 287 286 285 285 283 282 282 281 282 282 282 284 283 283 283 283 284 285
319 320 317 314 313 311 310 308 307 306 305 302 300 299 298 298 297 295 293 292 291 290 289 289 289 289 289 289 290 291 292 292 291 292 291 290 290 289 289 290 290 289 289 288 287 285 285 285 286 283 284 282 282 281 282 282 283 283 283 283 283 284 283
319 320 316 314 312 310 309 307 306 306 305 301 300 299 297 296 295 294 292 292 291 292 288 288 287 288 288 288 289 290 291 293 292 291 291 290 291 289 289 289 289 289 290 289 287 286 286 286 285 283 282 282 283 282 282 283 283 283 282 283 281 281 281
319 318 315 313 311 309 308 307 306 305 303 300 300 298 297 296 294 293 292 291 290 290 289 289 289 287 286 287 287 289 290 291 291 291 291 290 290 289 290 290 289 289 294 297 297 295 293 291 287 283 282 282 284 283 283 283 283 282 282 282 280 280 280
319 316 313 311 310 308 307 306 305 303 301 299 298 298 297 296 294 292 291 290 290 291 290 291 295 295 295 289 287 288 290 291 291 290 292 290 290 289 288 288 294 297 296 296 296 293 291 290 290 288 285 283 283 282 283 282 282 282 283 281 280 279 279
317 314 312 311 309 308 306 306 304 302 300 298 298 298 296 295 294 293 292 290 289 290 290 291 293 291 291 294 290 288 288 288 290 290 291 289 288 290 289 288 287 293 295 298 291 291 289 289 289 289 290 290 290 286 283 282 282 283 283 282 281 280 279
315 313 311 310 308 307 306 304 303 301 299 297 298 298 296 295 294 293 292 290 289 289 289 294 290 292 291 289 293 289 287 287 289 289 290 290 289 290 289 289 289 291 290 288 286 283 285 288 288 289 289 289 289 289 290 286 285 283 283 282 281 281 280
315 312 311 309 307 306 305 303 301 300 298 298 298 296 295 295 294 293 291 289 288 290 288 293 290 291 291 290 291 291 286 287 288 289 288 289 289 289 290 292 289 289 291 294 289 282 281 281 287 288 288 288 288 289 288 288 290 288 286 283 281 281 281
314 312 310 308 306 305 304 302 301 300 299 299 297 296 295 294 293 292 291 290 289 288 285 293 290 291 291 290 290 289 287 286 287 287 289 289 291 291 290 290 289 288 285 286 286 283 282 281 281 281 281 281 281 285 288 288 289 289 289 286 283 281 283
314 311 308 307 306 304 303 301 300 300 299 298 296 296 295 294 293 294 292 290 288 287 286 293 289 290 290 290 290 290 285 288 288 288 289 290 291 291 291 291 288 286 285 285 288 287 283 281 281 281 281 281 281 282 283 283 284 285 287 286 284 283 284
313 310 308 306 305 304 302 301 300 300 299 297 296 296 295 295 295 293 292 290 289 287 286 292 288 290 289 290 290 290 287 287 287 289 290 290 290 291 290 289 288 286 285 284 289 289 287 285 282 280 281 281 282 282 283 289 290 290 290 287 286 287 287
312 309 307 306 304 303 302 301 300 300 298 296 296 295 295 296 296 294 292 291 290 288 286 291 289 289 289 290 289 286 286 288 289 288 287 287 287 289 289 288 287 285 285 283 290 288 288 289 282 281 281 281 282 282 283 285 289 289 290 290 290 291 290
311 309 307 306 305 303 302 301 300 301 298 296 295 295 295 295 295 294 293 291 290 288 285 288 290 290 290 289 290 285 285 287 286 287 285 286 287 289 290 297 292 283 282 282 290 289 288 287 282 281 280 281 281 281 282 284 284 286 290 290 291 290 289
311 309 307 306 305 303 302 301 300 300 298 297 296 295 298 295 294 294 293 292 298 291 284 287 290 289 290 289 290 285 285 285 285 284 284 284 286 289 290 295 295 291 286 287 290 289 289 288 282 281 281 280 281 281 282 282 283 284 285 286 284 285 286
311 309 308 306 305 304 303 301 300 299 297 297 296 295 297 295 294 294 293 293 295 293 286 284 290 289 289 290 290 288 285 285 286 284 283 284 288 286 287 285 293 292 290 290 289 288 288 289 285 283 281 280 281 282 284 283 287 288 286 285 283 284 284
311 309 308 306 305 304 302 301 300 299 297 296 295 294 295 294 294 293 293 293 293 292 290 285 288 289 289 290 289 291 285 286 283 283 281 286 285 285 285 287 287 292 290 289 289 289 289 289 290 286 284 283 283 287 289 285 287 291 285 286 285 284 283
310 309 307 306 304 303 302 302 300 299 297 295 295 294 293 294 293 292 292 292 294 293 294 296 285 290 289 289 289 289 287 287 286 282 281 282 284 284 285 284 285 290 291 290 289 290 290 290 290 289 287 288 289 289 288 289 287 285 283 283 282 282 282
309 308 307 306 304 302 301 300 299 299 296 295 294 293 293 293 292 291 291 290 291 292 291 296 294 290 289 288 289 288 289 289 289 288 281 282 283 285 284 286 288 294 291 290 290 290 290 290 291 288 289 289 289 289 291 285 286 284 281 282 282 281 281
309 308 307 305 303 301 300 299 299 298 296 295 294 293 292 292 291 291 291 290 290 289 290 292 295 293 290 288 288 288 288 289 289 286 286 283 284 284 285 283 287 290 289 289 289 289 289 290 289 289 289 289 290 292 286 284 282 282 282 281 280 280 279
Wind_Speed
3 3 3 3 3 3 3 3 4 4 4 5 6 5 6 6 6 6 6 6 6 6 6 6 6 5 6 6 6 6 6 6 6 7 6 6 7 4 5 6 5 4 5 5 3 2 1 6 9 6 3 8 8 6 8 10 10 8 9 7 7 6 6
3 3 1 2 3 2 4 2 4 4 5 5 5 6 5 6 6 6 6 6 6 5 5 6 5 6 7 7 7 8 7 7 6 5 6 7 7 6 5 6 5 5 4 4 4 3 4 3 2 7 11 8 4 5 8 8 9 7 9 6 5 5 5
2 1 2 3 2 2 4 2 3 5 5 6 5 5 6 6 6 6 6 6 6 6 5 6 5 6 6 7 7 6 6 6 5 6 6 5 6 5 6 5 6 5 4 4 5 5 2 4 4 8 8 10 12 8 3 5 7 6 9 7 8 7 8
4 3 3 2 1 2 4 2 3 4 4 5 5 5 6 6 6 5 5 5 5 5 6 6 5 5 5 5 6 6 6 6 6 6 6 5 5 6 6 6 6 7 5 5 5 6 4 3 5 5 5 5 5 9 8 7 6 4 6 4 5 3 3
4 4 4 5 3 4 4 4 3 5 4 5 4 5 5 6 6 5 5 5 5 5 6 5 5 5 5 5 5 5 6 5 5 6 5 6 6 6 5 6 6 5 6 5 3 3 4 3 2 3 6 8 6 5 7 7 5 4 6 5 6 4 5
4 4 4 4 3 4 3 4 4 6 5 5 4 6 4 5 5 6 6 5 5 5 5 5 4 5 6 5 5 4 5 5 5 5 6 5 5 6 6 5 6 6 6 4 5 5 5 4 5 6 5 3 5 8 6 5 5 9 4 5 6 6 7
5 4 4 4 4 4 5 5 5 6 5 5 5 5 5 5 5 5 6 5 4 5 5 5 4 4 5 5 4 4 4 3 4 5 6 6 6 5 5 6 6 6 6 6 5 6 5 6 5 5 5 5 4 7 6 4 4 5 4 7 6 7 6
5 5 6 5 5 4 3 4 4 5 6 4 6 5 5 6 5 6 6 5 5 5 5 5 4 4 4 5 4 3 3 4 4 5 6 7 6 5 5 5 6 6 6 6 6 6 5 5 3 3 4 5 4 3 7 4 5 4 5 6 6 7 7
3 3 3 2 3 4 4 5 5 5 5 6 5 6 4 6 6 6 6 4 4 5 4 4 4 4 4 5 5 5 4 2 5 5 4 6 5 4 4 4 6 5 5 6 6 5 5 5 5 4 4 4 6 6 4 6 4 5 4 5 6 4 9
4 5 6 5 5 4 5 5 6 5 5 6 6 5 6 5 5 6 5 4 4 5 4 4 4 4 4 4 5 4 4 4 6 4 4 6 4 4 4 5 5 5 5 5 5 5 5 5 5 5 4 4 4 4 7 6 8 2 2 5 7 6 8
6 5 4 5 4 5 4 5 5 6 5 6 6 5 6 6 5 6 5 4 4 4 4 3 4 4 4 5 4 4 2 5 5 4 3 4 4 3 4 5 4 5 3 5 5 4 4 3 5 4 4 4 3 5 3 6 8 2 3 6 5 8 10
4 4 4 4 4 6 6 6 6 6 5 5 7 6 6 6 6 4 5 5 4 4 3 2 3 4 4 4 4 5 4 5 5 4 3 3 3 4 3 4 3 3 3 4 4 3 3 3 3 3 3 2 4 3 3 3 5 3 4 8 7 7 10
4 4 4 5 5 6 6 6 6 5 6 5 6 6 6 6 5 5 4 5 5 4 4 2 2 3 3 4 4 5 3 4 5 4 3 2 3 3 3 4 3 3 2 3 3 2 2 2 2 3 3 3 2 2 3 3 3 10 7 7 8 9 8
5 4 4 4 5 6 6 6 6 6 5 5 5 6 6 6 6 6 5 5 5 4 4 3 2 3 4 4 3 3 4 4 4 3 3 3 2 2 3 3 2 2 1 3 2 2 3 3 3 3 3 3 5 3 3 3 5 9 8 2 6 7 9
5 4 5 3 5 6 6 6 6 5 6 4 5 7 6 5 5 6 6 5 5 4 4 2 2 3 4 4 4 3 3 3 4 3 2 1 1 1 3 4 2 1 1 2 1 2 2 3 4 4 5 5 5 5 3 2 4 5 11 8 8 7 7
6 4 4 4 5 6 6 6 5 7 6 5 5 7 6 6 6 6 5 5 4 5 4 3 2 4 4 4 4 3 3 3 2 2 2 0 1 1 3 3 3 2 1 1 0 1 2 3 3 3 5 4 4 4 4 3 3 5 7 9 7 9 8
6 4 4 5 6 6 6 6 5 7 6 6 7 4 6 6 6 6 6 4 4 3 3 2 3 3 2 3 4 3 3 3 2 1 1 0 0 2 3 3 2 2 1 1 1 2 2 2 3 4 5 5 4 5 4 4 3 3 4 9 9 8 9
6 5 5 5 7 7 7 7 6 7 7 6 6 6 4 5 5 5 6 5 5 4 3 3 3 3 3 3 3 2 2 2 1 1 1 0 2 3 2 3 3 1 1 1 1 1 1 2 3 4 5 5 4 4 4 4 5 3 5 8 10 7 8
7 7 7 7 8 8 7 7 7 6 7 7 6 6 6 4 5 5 5 5 5 4 3 3 3 3 2 3 3 3 3 2 1 1 2 2 4 2 3 2 1 1 1 1 1 0 1 2 2 4 5 5 5 4 4 5 4 5 5 7 8 10 8
8 7 8 8 7 7 7 7 7 7 6 7 7 6 4 5 4 6 5 5 5 4 4 3 3 2 2 3 3 3 3 3 2 1 2 3 3 2 2 1 1 2 3 3 3 1 1 2 2 4 4 4 4 4 5 5 5 6 6 6 6 6 8
7 7 7 7 8 8 8 7 7 7 7 7 7 6 7 7 5 5 5 5 4 4 4 3 3 2 2 2 3 2 2 2 2 1 1 3 3 2 2 1 1 1 4 4 3 3 1 1 3 4 4 3 4 4 5 5 5 5 6 5 5 8 7
5 6 7 8 8 8 8 7 7 7 6 6 6 6 7 8 7 6 4 5 4 4 4 3 2 2 2 2 2 2 1 1 1 1 0 3 3 2 2 1 1 1 3 4 4 2 3 5 2 3 3 3 4 4 5 5 5 6 6 6 7 6 8
7 7 8 9 9 8 8 8 7 7 7 6 6 7 7 6 7 7 6 4 4 4 3 2 3 5 3 1 1 1 0 0 0 1 0 1 2 3 3 3 3 4 3 1 4 3 4 6 7 4 2 2 3 3 4 5 6 6 6 7 8 8 9
8 9 9 8 8 9 9 8 7 7 7 7 8 7 7 7 6 6 6 6 5 4 3 2 6 3 3 2 1 0 0 1 1 1 0 2 3 4 4 4 3 2 1 4 2 3 4 6 6 7 8 9 7 3 3 4 5 5 6 6 7 8 8
9 9 9 9 9 8 8 8 8 7 7 7 6 6 7 7 6 6 5 5 5 4 3 5 5 4 3 1 1 0 1 1 2 1 1 2 3 3 4 4 3 2 1 2 1 2 4 6 7 8 8 8 9 10 8 4 4 6 6 7 8 9 8
10 10 10 9 8 8 9 8 8 8 8 7 6 7 7 7 6 5 6 6 5 4 4 5 5 5 3 2 2 1 1 2 2 3 3 2 3 3 4 4 3 0 1 3 2 2 3 4 6 9 8 8 10 10 9 9 8 5 5 6 6 9 9
10 10 9 9 9 9 9 10 8 7 7 6 7 6 6 7 6 6 6 6 5 4 4 6 6 5 4 3 3 3 2 3 3 3 3 3 4 4 5 5 3 1 0 0 1 2 3 2 3 4 5 5 5 8 10 10 9 11 9 5 6 8 11
10 10 10 10 9 10 9 8 8 8 8 9 9 9 8 7 6 6 5 5 5 5 4 8 7 6 4 4 4 4 3 3 3 3 4 4 5 5 6 4 4 4 2 1 1 2 2 3 3 4 4 5 5 5 6 6 5 5 6 5 6 8 10
10 10 10 9 10 10 9 10 10 7 7 6 5 5 5 6 7 6 5 6 5 5 4 8 8 7 6 5 5 2 2 3 3 3 4 4 4 5 4 4 5 4 3 3 4 3 3 2 2 4 5 6 7 7 7 6 7 8 8 7 7 8 9
11 11 10 11 10 10 10 9 7 7 8 7 8 7 8 7 6 7 6 5 6 5 4 7 9 8 6 7 4 2 2 2 3 3 3 3 4 3 2 4 5 5 4 3 5 6 5 4 3 4 5 6 6 7 9 8 8 10 11 12 14 15 16
12 11 11 12 12 10 8 7 8 8 10 9 8 8 7 6 6 7 7 7 7 6 6 7 10 9 7 7 5 3 3 3 3 2 2 2 2 1 3 9 6 5 4 4 7 7 6 3 3 4 4 6 7 8 9 7 6 7 9 10 12 13 14
12 13 13 12 11 11 11 11 8 7 7 7 7 6 6 7 6 5 6 7 10 8 6 7 11 10 8 7 5 3 4 3 2 2 1 2 2 1 2 4 8 6 5 5 8 7 5 5 4 4 4 4 7 7 8 6 7 8 8 7 7 7 8
12 13 13 10 10 10 8 7 8 8 6 7 7 6 6 6 7 6 5 6 7 6 6 5 7 11 8 8 8 4 3 3 4 4 2 2 1 2 3 3 4 7 9 8 8 7 6 6 4 4 3 4 5 8 7 5 7 6 6 6 7 6 8
14 11 11 11 10 9 9 9 8 8 7 6 6 6 6 5 6 5 6 6 6 5 6 7 7 11 11 9 9 8 4 4 4 3 4 2 2 3 3 4 5 6 9 10 10 9 7 8 6 4 4 5 4 7 8 6 7 8 4 5 5 7 7
10 10 9 10 10 9 7 8 8 8 7 7 7 7 5 6 6 6 5 6 6 7 8 11 7 11 12 11 10 10 7 5 5 5 3 4 4 4 5 3 4 6 11 11 10 9 10 9 9 5 6 8 10 11 7 4 4 4 5 5 6 6 7
11 8 9 9 10 9 7 8 7 7 8 7 7 7 7 6 5 6 6 6 6 6 6 7 11 9 12 12 12 10 10 7 7 4 5 5 5 6 4 4 4 7 6 7 9 11 10 11 8 6 10 10 10 11 6 3 3 5 5 6 6 7 7
9 8 10 10 9 9 8 7 7 8 8 8 7 7 7 6 6 6 7 7 6 6 6 7 9 12 10 14 12 12 12 11 9 5 5 6 6 4 5 4 4 6 8 11 11 10 11 10 7 10 10 11 10 7 2 3 3 3 3 5 6 7 8
Wind_Direction
170 188 193 185 180 165 114 99 80 67 71 79 81 71 69 68 66 60 60 60 62 62 68 66 70 66 64 56 58 55 51 51 57 63 54 36 57 12 25 41 37 44 54 64 49 74 70 321 333 354 27 1 359 9 1 358 355 357 4 4 9 25 23
176 191 184 125 146 140 113 103 86 80 78 70 76 81 70 68 68 68 63 64 63 60 68 69 68 71 72 67 56 50 50 45 47 56 59 45 45 39 31 25 32 31 36 61 52 37 68 352 297 353 337 340 352 10 360 360 353 356 1 355 4 25 17
203 188 126 142 144 136 131 128 105 93 89 78 71 75 77 70 67 66 66 66 67 67 68 72 73 66 65 68 68 68 61 60 42 50 65 59 60 52 56 50 42 15 31 21 29 24 30 70 16 340 349 347 342 336 351 351 343 353 350 346 355 7 6
207 171 141 144 94 110 121 139 110 98 89 91 85 72 77 73 66 65 71 69 66 66 67 69 70 73 65 67 68 68 65 64 52 50 48 53 64 59 52 56 55 55 54 40 8 11 28 353 349 335 323 325 312 322 339 344 335 346 340 342 344 356 358
186 183 184 189 202 166 154 145 121 99 91 86 84 85 72 73 73 63 65 66 68 70 69 73 72 71 69 64 59 68 68 62 55 54 49 48 53 65 59 55 57 53 45 42 0 20 19 333 5 326 335 336 333 330 314 327 310 334 334 346 343 337 345
198 197 198 207 206 179 181 149 125 120 119 95 94 92 82 82 84 74 65 66 65 65 72 70 67 69 69 66 66 62 63 69 69 63 57 56 58 68 68 51 55 45 38 19 28 17 12 15 30 9 342 344 317 313 318 339 334 329 312 346 335 340 341
211 204 210 202 203 187 186 162 148 141 135 134 121 106 114 99 85 86 83 75 74 71 72 71 66 62 67 72 71 70 65 66 67 61 55 53 57 59 68 62 47 46 32 23 25 33 21 30 20 16 335 334 318 309 308 331 335 346 321 340 342 343 343
204 206 213 199 182 165 169 134 130 132 131 139 121 124 112 102 98 88 88 83 79 76 69 64 60 55 54 57 55 62 66 67 66 63 56 65 59 58 57 65 60 45 33 27 31 29 33 38 38 3 13 341 317 301 320 310 321 317 298 313 346 340 357
192 191 171 160 157 158 155 138 136 135 135 127 126 121 115 110 105 97 90 93 90 81 73 74 69 65 59 63 52 54 49 45 63 55 61 74 69 66 63 63 63 45 40 36 34 35 37 28 27 15 12 12 354 329 314 303 323 298 305 327 328 4 355
175 195 164 165 160 153 140 139 135 139 132 129 127 124 120 107 109 103 99 97 89 90 84 78 80 76 69 62 66 60 52 42 62 55 64 75 78 71 62 72 78 60 39 42 36 31 29 26 17 14 22 19 5 357 341 327 310 319 308 4 335 337 347
183 197 172 159 148 132 130 132 132 134 145 140 130 131 124 121 108 105 106 100 97 88 91 91 91 86 76 68 74 69 57 60 60 53 54 78 74 76 69 69 71 66 49 55 43 29 25 20 13 9 10 5 26 27 337 332 309 297 311 340 345 326 331
190 181 182 161 148 137 145 152 152 149 139 137 128 128 123 115 115 115 112 105 96 94 78 70 83 85 89 80 75 76 51 63 67 63 35 71 67 77 78 88 86 77 65 67 54 31 19 8 3 352 355 22 7 27 349 313 328 283 40 325 328 323 316
198 185 189 171 150 151 157 154 148 144 153 140 129 126 125 128 129 124 117 111 102 96 84 65 80 76 70 84 91 73 57 71 71 70 48 41 70 81 88 93 101 98 77 73 54 31 25 354 349 346 347 2 353 355 347 327 290 287 323 318 314 315 313
218 209 201 192 141 156 154 152 151 148 132 136 131 126 131 137 135 130 124 118 114 103 90 80 79 83 80 81 68 78 66 78 79 57 74 47 36 73 96 107 110 110 90 74 46 21 13 353 347 347 335 353 360 352 353 320 299 298 302 275 293 306 311
216 206 201 167 142 154 155 151 148 137 135 141 133 131 136 139 134 132 126 125 126 118 117 122 109 97 97 78 56 55 74 72 77 76 69 51 355 43 105 112 123 128 114 113 77 20 4 354 351 352 347 352 345 334 317 309 291 290 302 318 316 308 302
218 205 165 150 153 154 152 148 146 138 137 137 134 136 143 141 139 135 130 135 135 134 142 154 148 113 110 103 100 87 87 88 90 87 76 224 292 69 74 119 159 185 189 90 345 323 11 355 351 348 343 344 335 317 308 291 297 300 302 306 307 311 315
216 185 153 158 154 156 150 149 145 137 140 138 135 139 140 140 137 136 136 131 115 102 77 60 42 45 79 116 119 101 75 89 120 123 117 209 284 78 111 124 189 213 194 103 340 2 354 344 344 345 347 335 324 313 300 304 292 275 293 305 314 312 312
209 181 165 162 158 155 154 150 149 143 141 139 139 140 140 136 135 134 127 122 112 101 100 91 79 63 54 57 66 61 71 95 110 97 108 36 73 96 105 156 209 220 163 101 344 16 325 345 325 346 338 325 323 310 311 309 303 297 296 302 303 302 301
203 184 171 166 162 160 155 152 150 149 145 142 144 146 147 146 135 124 121 120 115 109 97 88 83 84 68 59 63 61 44 17 119 116 94 87 91 103 120 170 229 176 186 134 183 230 275 295 312 338 335 327 319 314 310 310 306 305 298 288 293 306 315
195 180 172 166 159 156 157 156 152 153 153 148 148 147 134 124 125 124 122 115 114 117 108 92 91 77 69 66 68 65 41 31 5 88 109 97 111 128 132 107 85 156 179 173 170 208 243 291 322 329 322 312 311 318 318 313 314 308 301 298 293 289 304
186 176 166 159 160 159 157 158 157 152 148 148 148 146 140 132 127 119 123 114 116 112 106 96 95 88 79 71 73 56 55 32 23 350 90 105 129 148 155 132 321 180 187 183 178 209 202 306 307 326 315 310 313 323 320 316 316 311 305 303 302 315 314
169 161 159 158 159 162 162 159 155 154 149 145 144 142 138 135 129 117 109 114 113 110 108 118 133 124 102 73 75 77 44 42 22 0 340 129 159 185 204 196 248 237 199 191 176 85 24 358 332 325 315 309 318 326 321 319 315 311 305 303 311 310 312
166 163 162 166 167 163 161 160 157 155 152 146 142 141 138 139 137 139 131 123 119 117 124 167 132 110 102 124 107 72 13 1 305 325 301 195 189 226 218 221 242 281 317 11 89 47 359 350 357 12 344 326 323 324 323 325 322 317 316 322 322 321 323
163 169 171 164 162 162 163 160 158 155 152 149 148 149 143 144 147 146 143 141 137 137 150 182 126 117 90 75 124 138 6 293 273 293 261 253 216 223 235 239 245 271 19 74 59 22 348 350 348 1 4 358 353 342 321 320 307 308 313 308 306 317 315
170 170 166 169 167 165 157 158 160 159 155 155 155 146 151 155 152 148 141 138 142 155 174 155 140 140 136 130 273 179 226 254 284 271 262 256 266 264 246 236 241 248 124 143 101 357 352 354 353 355 355 345 339 331 331 315 310 320 317 313 317 312 312
173 170 173 168 164 158 159 159 161 162 169 165 148 155 160 151 157 154 148 151 158 169 171 163 166 157 176 199 247 274 238 250 251 263 263 261 262 265 264 248 236 307 26 48 22 357 3 346 346 348 341 334 328 327 322 316 326 315 293 304 302 306 306
175 175 167 164 162 162 164 171 169 166 155 153 156 155 157 161 159 162 163 161 165 169 185 189 179 178 187 216 233 241 240 240 246 252 261 266 265 260 255 242 206 162 285 336 322 349 347 345 339 335 329 331 318 316 321 330 328 318 311 293 294 298 298
175 170 168 164 165 168 169 164 166 169 166 165 164 166 167 167 172 169 167 160 158 177 198 187 183 181 196 222 245 249 223 240 250 265 269 263 258 255 254 234 186 169 194 238 261 313 314 315 331 318 322 322 310 300 312 315 312 306 300 303 296 289 292
173 167 166 166 168 171 172 171 171 170 163 159 153 147 161 162 169 171 170 165 165 185 211 188 191 187 197 223 248 260 234 242 256 271 288 283 279 265 235 172 152 162 194 224 238 251 270 278 314 319 328 320 322 325 316 299 300 299 301 301 299 297 296
171 169 168 169 174 175 173 174 173 165 161 167 162 172 173 176 172 167 170 177 177 188 200 199 197 194 198 216 237 246 250 250 250 270 278 296 290 266 165 152 152 167 197 226 225 217 238 269 292 318 322 316 313 320 312 313 318 310 305 308 306 304 304
170 169 171 178 179 177 173 171 174 174 170 169 176 180 171 166 170 175 175 184 186 181 207 209 202 201 200 212 220 216 222 218 247 246 270 278 295 213 174 164 161 174 194 233 229 226 224 237 279 300 316 315 319 319 308 310 318 309 304 303 305 308 308
171 172 178 180 175 173 178 179 174 170 170 167 171 165 169 167 173 185 190 184 194 189 198 206 203 203 201 212 223 213 211 202 232 260 286 306 304 296 257 186 183 189 199 231 230 235 231 229 251 273 274 299 302 302 290 300 306 311 321 333 325 320 318
175 175 177 172 174 175 165 158 169 169 168 166 163 171 174 176 177 191 192 188 203 190 190 206 203 203 200 206 222 214 196 181 226 247 270 242 287 299 250 277 236 212 231 243 245 250 249 241 247 261 246 260 282 288 290 305 294 299 314 321 312 318 315
175 177 172 170 165 164 169 169 163 164 163 161 157 169 184 187 187 192 192 200 205 196 193 194 208 200 204 207 216 217 199 214 212 209 233 252 243 251 261 233 249 251 249 253 258 265 275 270 262 264 254 247 234 262 291 295 296 322 323 316 320 321 316
167 162 159 156 168 170 168 163 164 161 158 161 169 181 185 190 195 204 201 203 208 205 207 201 196 204 204 209 213 217 209 220 196 190 220 256 250 250 247 246 241 244 243 250 263 284 291 299 307 303 274 265 279 286 287 269 292 324 326 318 324 324 323
161 159 161 163 155 161 166 160 161 156 159 166 174 183 190 193 196 210 221 219 216 211 208 214 196 198 203 206 211 215 219 219 204 194 194 235 237 242 242 243 256 262 267 274 281 286 298 306 310 288 286 296 295 295 299 320 328 340 326 328 334 339 330
153 154 157 156 161 161 165 164 160 167 168 171 177 188 197 193 197 208 217 227 224 220 216 215 205 200 200 205 210 215 219 220 202 203 197 222 240 241 255 254 252 271 288 291 293 300 303 301 284 282 292 292 294 304 337 331 349 329 326 336 345 342 334